Tracking 31027 objects as of 19-Jul-2025
HD Live streaming from Space Station
objects crossing your sky now

TITAN 34D TRANSTAGE DEB

Track TITAN 34D TRANSTAGE DEB now!


NORAD ID: 22668
Int'l Code: 1988-077D
Perigee: 361.2 km
Apogee: 37,464.4 km
Inclination: 26.9 °
Period: 666.8 minutes
Semi major axis: 25283 km
RCS: Unknown
Launch date: September 2, 1988
Source: United States (US)
Launch site: AIR FORCE EASTERN TEST RANGE (AFETR)

Note: This is SATELLITE DEBRIS
Your satellite tracking list
No more satellites can be added for tracking (max 5)
FOX-1B (RADFXSAT AO-91)
FOX-1D (AO-92)
FOX-1A (AO-85)
FUNCUBE 1 (AO-73)
SPACE STATION
Track 5 satellite(s)




NASA's NSSDC Master Catalog

Two Line Element Set (TLE):
1 22668U 88077D   25199.16210610  .00000787  00000-0  13992-2 0  9995
2 22668  26.9345 288.9013 7337341 216.6863  58.1921  2.15943168 47956
Source of the keplerian elements: AFSPC